CZ-6A DEB

Satellite information

Favourite Embed

Satellite Type and Status

DEBRISIN ORBIT

Key statistics

Satellite CZ-6A DEB at a glance.

Uptime

335

Days in orbit

Revolutions

≈ 14.5

Per day

Orbit

LEO

Low Earth Orbit

Inclination

89.1

Latest

Satellite identification and parameters

Extended collection of information and parameters for CZ-6A DEB.

Object identification

Identified? True

Debris? True

Object name: CZ-6A DEB

International designator: 2024-140MU

Object number (NORAD): 61078

Object ID (CCSDS): 61078

Country: PEOPLES REPUBLIC OF CHINA (PRC)

Current information (Y/N): Y

RCS size: SMALL

Orbital parameters

Period: 99.29 minutes

Inclination: 89.0518 deg

SMA: 7102.792 km

Apoapsis: 792.476 km

Periapsis: 656.838 km

RAAN: 313.8783 deg

Eccentricy: 0.0095482

Argument of periapsis: 28.7371 deg

Mean anomaly: 331.9048 deg

Mean motion: 14.50304292 rev/day

Mean motion (dot): 0.00001294 rev/day2

B* drag term: 0.00030924 1/REarth

Two-line elements (TLE)

Creation date: July 5, 2025, 5:45 p.m.

Reference frame: TEME

Reference center: EARTH

Epoch: July 5, 2025, 8:59 a.m. UTC

TLE line 0: 0 CZ-6A DEB

TLE line 1: 1 61078U 24140MU 25186.37499599 .00001294 00000-0 30924-3 0 9997

TLE line 2: 2 61078 89.0518 313.8783 0095482 28.7371 331.9048 14.50304292 45315

Live tracking on map

Real-time ground track for satellite CZ-6A DEB.

In-orbit conjunctions

A list of the most updated potential collisions computed for object CZ-6A DEB.

Target Orbit TCA Probability of collision Miss distance Type
CZ-4B R/B LEO 2025-06-10 01:49:47 0.000179195 764.0 (m) ROCKET BODY
COSMOS 1452 LEO 2025-03-23 06:51:25 0.0002353261 289.0 (m) PAYLOAD
CZ-6A DEB LEO 2025-01-06 12:19:10 0.0002864491 104.0 (m) DEBRIS
IRIDIUM 33 DEB LEO 2024-10-08 15:18:39 0.0004497893 321.0 (m) DEBRIS

Associated space launch

18 Low Earth Orbit communication satellites with Ku, Q and V band payloads for the G60 constellation operated by Shanghai Spacecom Satellite Technology (SSST) with funding backed by the Shanghai local government. Initial constellation will consist of 1296 satellites by 2027 with long term plans to expand it to 12000 satellites.

CZ-6A DEB was lifted into orbit during the mission ‘Long March 6A | G60 Polar Group 01’, on board a Long March 6A space rocket.

The launch took place on Aug. 6, 2024, 6:42 a.m. from Launch Complex 9A.

For more information about the launch, click the button.

Launch to space Long March 6A | G60 Polar Group 01
Long March 6A | G60 Polar Group 01

Agency: N/A

Status: Launch Successful

Launch date: Aug. 6, 2024, 6:42 a.m. UTC

Rocket: Long March 6A

Launch pad: Launch Complex 9A

Location: Taiyuan Satellite Launch Center, People's Republic of China

...

Latest news about this satellite

News about space launch
Brightness of first Chinese broadband constellation satellites alarms astronomers

The first satellites of a Chinese broadband constellation are significantly brighter than those of Western systems, posing a new challenge for astronomers.

News about space launch
Chinese rocket stage breaks up into cloud of more than 700 pieces of space debris

HELSINKI — A Chinese Long March 6A rocket’s upper stage has fragmented into a cloud of over 700 pieces of space debris, adding to concerns about long-term orbital safety. China […]

News about space launch
China's Thousand Sails Megaconstellation Kicks Off with Dangerous Debris Field

China's Thousand Sails Megaconstellation Kicks Off with Dangerous Debris Field


Newsletter sign-up

Weekly statistics, charts and insights to help you stay on top of the space industry.